This is the latest recevied weather packets stored in our database for station/object OK3MS-5. If no packets are shown the sender has not sent any weather packets the latest 10 day(s).
| Time | Temp. | Humidity | Pressure | Rain* | Wind** | Luminosity | Snow |
|---|---|---|---|---|---|---|---|
| 1777475710 | 11.67° C | 35% | 1023 hPa | 0 mm | - | 315 W/m² | - |
| 1777475404 | 11.67° C | 37% | 1022.9 hPa | 0 mm | - | 332 W/m² | - |
| 1777475106 | 12.22° C | 35% | 1022.9 hPa | 0 mm | - | 344 W/m² | - |
| 1777474806 | 12.22° C | 35% | 1022.9 hPa | 0 mm | - | 357 W/m² | - |
| 1777474503 | 12.22° C | 36% | 1022.8 hPa | 0 mm | - | 369 W/m² | - |
| 1777474203 | 12.22° C | 35% | 1022.7 hPa | 0 mm | - | 385 W/m² | - |
| 1777473904 | 12.22° C | 36% | 1022.7 hPa | 0 mm | - | 399 W/m² | - |
| 1777473609 | 12.78° C | 37% | 1022.5 hPa | 0 mm | - | 412 W/m² | - |
| 1777473302 | 12.78° C | 36% | 1022.5 hPa | 0 mm | - | 424 W/m² | - |
| 1777473006 | 12.22° C | 36% | 1022.6 hPa | 0 mm | - | 437 W/m² | - |
| 1777472706 | 12.22° C | 37% | 1022.5 hPa | 0 mm | - | 447 W/m² | - |
| 1777472403 | 12.22° C | 35% | 1022.5 hPa | 0 mm | - | 461 W/m² | - |
| 1777472103 | 12.78° C | 34% | 1022.5 hPa | 0 mm | - | 476 W/m² | - |
| 1777471804 | 12.22° C | 35% | 1022.5 hPa | 0 mm | - | 489 W/m² | - |
| 1777471504 | 12.78° C | 34% | 1022.3 hPa | 0 mm | - | 500 W/m² | - |
| 1777471205 | 12.22° C | 35% | 1022.5 hPa | 0 mm | - | 512 W/m² | - |
| 1777470906 | 12.22° C | 34% | 1022.5 hPa | 0 mm | - | 527 W/m² | - |
| 1777470603 | 12.22° C | 35% | 1022.6 hPa | 0 mm | - | 537 W/m² | - |
| 1777470303 | 12.22° C | 35% | 1022.3 hPa | 0 mm | - | 549 W/m² | - |
| 1777470004 | 12.78° C | 34% | 1022.3 hPa | 0 mm | - | 558 W/m² | - |
| 1777469709 | 12.22° C | 33% | 1022.2 hPa | 0 mm | - | 568 W/m² | - |
| 1777469405 | 12.22° C | 34% | 1022.3 hPa | 0 mm | - | 576 W/m² | - |
| 1777469104 | 12.78° C | 32% | 1022.4 hPa | 0 mm | - | 594 W/m² | - |
| 1777468804 | 12.78° C | 34% | 1022.3 hPa | 0 mm | - | 605 W/m² | - |
| 1777468506 | 12.78° C | 33% | 1022.2 hPa | 0 mm | - | 615 W/m² | - |
* Rain latest hour (hover to see other rain measurements)
** Current wind speed in m/s (hover to see current wind gust speed)